User: anonymous
Location: Unspecified
(0.0000°N, 0.0000°E)
Time: 11:19:11
(UTC+00:00)
Language:

SR - Orbit

View from above orbital plane
View from above orbital plane
View from above satellite
View from above satellite

Ground track
Ground track

The orbit data is extracted from the following two-line orbital elements,

1 00046U 60007B   14292.26789739  .00001201  00000-0  26128-3 0  7637
2 00046 066.6923 231.7882 0219997 233.4091 124.6599 14.47905535839474
Epoch (UTC): 19 October 2014 06:25:46
Eccentricity: 0.0219997
inclination: 66.6923°
perigee height: 576 km
apogee height: 889 km
right ascension of ascending node: 231.7882°
argument of perigee: 233.4091°
revolutions per day: 14.47905535
mean anomaly at epoch: 124.6599°
orbit number at epoch: 83947

The dashed part of the orbit path shows where the satellite is in the earth's shadow,  

DLR